Date String (YYYY-MM-DD hh:mm:ss) UTC,Instrument flags,Ambient pressure (hPa),Sample flow (lpm),Bypass flow (lpm),Sample temperature (°C),Ambient temperature (°C),ASC tube jacket temperature (°C),LED temperature (°C),Box temperature (°C),Sample RH (%),Span deviation,Mass concentration (μg/m³),Mass concentration (μg/m³),Mass concentration (μg/m³)
DateTimeUTC,F1_M11,P_M11,Q1_M11,Q2_M11,T1_M11,T2_M11,T3_M11,T4_M11,T5_M11,U1_M11,ZSPAN_M11,X0_M11,X2_M11,X1_M11
2022-01-28 00:00:00,,0835.6,4.99,0.00,21.4,20.7,00.0,30.5,23.0,10.6,0000.0,0006.36,0003.93,0003.80
2022-01-28 00:01:00,,0835.6,5.01,0.00,21.4,20.7,00.0,30.5,23.0,10.7,0000.0,0006.31,0003.92,0003.80
2022-01-28 00:02:00,,0835.6,5.01,0.00,21.3,20.7,00.0,30.5,23.0,10.8,0000.0,0006.25,0003.92,0003.81
2022-01-28 00:03:00,,0835.6,4.99,0.00,21.3,20.7,00.0,30.4,23.0,10.8,0000.0,0005.64,0003.93,0003.82
2022-01-28 00:04:00,,0835.6,5.01,0.00,21.4,21.1,00.0,30.5,23.1,10.7,0000.0,0005.58,0003.92,0003.83
2022-01-28 00:05:00,,0835.6,5.01,0.00,21.5,22.0,00.0,30.5,23.4,10.7,0000.0,0005.57,0003.92,0003.84
2022-01-28 00:06:00,,0835.6,5.00,0.00,21.7,22.6,00.0,30.5,23.7,10.7,0000.0,0006.36,0003.93,0003.85
2022-01-28 00:07:00,,0835.6,4.99,0.00,21.8,22.5,00.0,30.6,23.8,10.6,0000.0,0006.94,0003.97,0003.88
2022-01-28 00:08:00,,0835.6,5.01,0.00,21.8,22.3,00.0,30.6,23.7,10.6,0000.0,0007.01,0004.01,0003.93
2022-01-28 00:09:00,,0835.6,5.00,0.00,21.8,22.1,00.0,30.6,23.7,10.5,0000.0,0007.13,0004.07,0003.98
2022-01-28 00:10:00,,0835.6,5.00,0.00,21.8,21.8,00.0,30.6,23.6,10.5,0000.0,0007.26,0004.07,0003.99
2022-01-28 00:11:00,,0835.6,4.99,0.00,21.8,21.6,00.0,30.6,23.5,10.5,0000.0,0006.59,0004.08,0004.00
2022-01-28 00:12:00,,0835.6,5.02,0.00,21.7,21.5,00.0,30.6,23.4,10.4,0000.0,0006.47,0004.09,0004.01
2022-01-28 00:13:00,,0835.6,4.99,0.00,21.7,21.3,00.0,30.6,23.4,10.4,0000.0,0006.48,0004.10,0004.02
2022-01-28 00:14:00,,0835.6,5.01,0.00,21.7,21.2,00.0,30.6,23.3,10.4,0000.0,0006.48,0004.09,0004.01
2022-01-28 00:15:00,,0835.6,5.01,0.00,21.6,21.1,00.0,30.6,23.3,10.4,0000.0,0006.46,0004.09,0004.02
2022-01-28 00:16:00,,0835.7,5.00,0.00,21.6,21.1,00.0,30.6,23.3,10.4,0000.0,0006.43,0004.08,0004.01
2022-01-28 00:17:00,,0835.6,4.99,0.00,21.6,21.0,00.0,30.6,23.3,10.5,0000.0,0006.32,0004.09,0004.01
2022-01-28 00:18:00,,0835.7,5.01,0.00,21.6,21.0,00.0,30.6,23.3,10.5,0000.0,0005.27,0004.07,0004.01
2022-01-28 00:19:00,,0835.7,5.01,0.00,21.6,21.0,00.0,30.6,23.3,10.5,0000.0,0005.30,0004.06,0003.99
2022-01-28 00:20:00,,0835.8,4.99,0.00,21.6,21.0,00.0,30.6,23.3,10.5,0000.0,0005.26,0004.04,0003.97
2022-01-28 00:21:00,,0835.7,5.01,0.00,21.6,21.0,00.0,30.6,23.2,10.5,0000.0,0005.21,0004.04,0003.97
2022-01-28 00:22:00,,0835.7,4.98,0.00,21.6,21.0,00.0,30.6,23.2,10.4,0000.0,0004.90,0004.05,0003.99
2022-01-28 00:23:00,,0835.7,5.01,0.00,21.6,20.9,00.0,30.6,23.2,10.4,0000.0,0005.00,0004.09,0004.01
2022-01-28 00:24:00,,0835.8,4.99,0.00,21.5,20.9,00.0,30.6,23.2,10.4,0000.0,0005.07,0004.12,0004.03
2022-01-28 00:25:00,,0835.8,5.01,0.00,21.5,20.9,00.0,30.6,23.2,10.4,0000.0,0005.02,0004.13,0004.05
2022-01-28 00:26:00,,0835.8,5.01,0.00,21.5,20.9,00.0,30.6,23.2,10.4,0000.0,0005.04,0004.15,0004.06
2022-01-28 00:27:00,,0835.8,4.99,0.00,21.5,20.9,00.0,30.5,23.2,10.4,0000.0,0005.24,0004.19,0004.09
2022-01-28 00:28:00,,0835.8,5.01,0.00,21.5,21.1,00.0,30.6,23.2,10.4,0000.0,0005.35,0004.20,0004.09
2022-01-28 00:29:00,,0835.9,5.01,0.00,21.7,21.9,00.0,30.6,23.5,10.3,0000.0,0005.34,0004.20,0004.08
2022-01-28 00:30:00,,0835.8,4.99,0.00,21.8,22.5,00.0,30.7,23.8,10.2,0000.0,0005.28,0004.18,0004.07
2022-01-28 00:31:00,,0835.8,5.01,0.00,21.9,22.5,00.0,30.7,23.8,10.2,0000.0,0005.25,0004.16,0004.05
2022-01-28 00:32:00,,0835.9,5.00,0.00,21.9,22.2,00.0,30.7,23.8,10.2,0000.0,0005.27,0004.17,0004.05
2022-01-28 00:33:00,,0835.9,5.00,0.00,21.9,22.0,00.0,30.7,23.7,10.2,0000.0,0005.27,0004.19,0004.06
2022-01-28 00:34:00,,0835.8,4.99,0.00,21.9,21.8,00.0,30.7,23.6,10.2,0000.0,0005.26,0004.18,0004.05
2022-01-28 00:35:00,,0835.8,5.01,0.00,21.9,21.7,00.0,30.7,23.6,10.2,0000.0,0005.29,0004.19,0004.06
2022-01-28 00:36:00,,0835.8,4.98,0.00,21.8,21.5,00.0,30.7,23.5,10.3,0000.0,0005.77,0004.20,0004.07
2022-01-28 00:37:00,,0835.9,5.01,0.00,21.8,21.4,00.0,30.7,23.5,10.3,0000.0,0006.27,0004.23,0004.09
2022-01-28 00:38:00,,0835.9,5.00,0.00,21.8,21.3,00.0,30.7,23.4,10.3,0000.0,0006.18,0004.23,0004.09
2022-01-28 00:39:00,,0835.9,5.00,0.00,21.7,21.2,00.0,30.7,23.4,10.4,0000.0,0005.88,0004.23,0004.11
2022-01-28 00:40:00,,0835.9,5.00,0.00,21.7,21.1,00.0,30.7,23.4,10.4,0000.0,0005.89,0004.25,0004.13
2022-01-28 00:41:00,,0835.9,5.01,0.00,21.7,21.1,00.0,30.7,23.3,10.4,0000.0,0006.32,0004.27,0004.15
2022-01-28 00:42:00,,0835.8,4.98,0.00,21.7,21.0,00.0,30.7,23.3,10.4,0000.0,0006.58,0004.30,0004.17
2022-01-28 00:43:00,,0835.8,5.01,0.00,21.6,21.0,00.0,30.7,23.2,10.4,0000.0,0006.73,0004.33,0004.19
2022-01-28 00:44:00,,0835.9,5.01,0.00,21.6,20.9,00.0,30.7,23.2,10.4,0000.0,0006.87,0004.35,0004.19
2022-01-28 00:45:00,,0835.9,5.01,0.00,21.6,20.9,00.0,30.7,23.2,10.5,0000.0,0006.98,0004.39,0004.22
2022-01-28 00:46:00,,0835.9,4.98,0.00,21.5,20.8,00.0,30.6,23.2,10.5,0000.0,0007.18,0004.42,0004.24
2022-01-28 00:47:00,,0835.9,5.01,0.00,21.5,21.0,00.0,30.6,23.2,10.5,0000.0,0007.08,0004.45,0004.25
2022-01-28 00:48:00,,0835.9,5.00,0.00,21.6,21.7,00.0,30.7,23.4,10.4,0000.0,0006.42,0004.44,0004.24
2022-01-28 00:49:00,,0835.9,5.01,0.00,21.8,22.5,00.0,30.7,23.7,10.4,0000.0,0006.39,0004.44,0004.25
2022-01-28 00:50:00,,0835.9,4.99,0.00,22.0,22.9,00.0,30.8,24.0,10.3,0000.0,0006.40,0004.43,0004.24
2022-01-28 00:51:00,,0835.9,5.01,0.00,22.0,22.7,00.0,30.8,23.9,10.2,0000.0,0006.49,0004.43,0004.24
2022-01-28 00:52:00,,0835.9,5.01,0.00,22.0,22.4,00.0,30.8,23.9,10.2,0000.0,0006.17,0004.43,0004.24
2022-01-28 00:53:00,,0835.9,5.00,0.00,22.0,22.1,00.0,30.8,23.8,10.2,0000.0,0005.91,0004.43,0004.23
2022-01-28 00:54:00,,0835.9,5.00,0.00,22.0,21.9,00.0,30.8,23.7,10.2,0000.0,0005.89,0004.42,0004.21
2022-01-28 00:55:00,,0835.9,4.99,0.00,21.9,21.7,00.0,30.8,23.6,10.2,0000.0,0005.73,0004.40,0004.21
2022-01-28 00:56:00,,0835.9,5.01,0.00,21.9,21.5,00.0,30.8,23.5,10.2,0000.0,0006.40,0004.40,0004.19
2022-01-28 00:57:00,,0835.9,4.98,0.00,21.8,21.4,00.0,30.8,23.5,10.2,0000.0,0007.15,0004.40,0004.18
2022-01-28 00:58:00,,0835.9,5.01,0.00,21.8,21.3,00.0,30.8,23.4,10.2,0000.0,0007.08,0004.39,0004.17
2022-01-28 00:59:00,,0836.0,5.01,0.00,21.8,21.2,00.0,30.8,23.4,10.2,0000.0,0006.94,0004.36,0004.16
